Tracking 30995 objects as of 5-Jul-2025
HD Live streaming from Space Station
objects crossing your sky now

STARLINK-5117

Track STARLINK-5117 now!
10-day predictions
STARLINK-5117 is classified as:


NORAD ID: 54172
Int'l Code: 2022-141R
Perigee: 545.9 km
Apogee: 547.8 km
Inclination: 53.2 °
Period: 95.4 minutes
Semi major axis: 6917 km
RCS: Unknown
Launch date: October 28, 2022
Source: United States (US)
Launch site: AIR FORCE WESTERN TEST RANGE (AFWTR)
Your satellite tracking list
SJ-6G
Track 1 satellite(s)




NASA's NSSDC Master Catalog

Two Line Element Set (TLE):
1 54172U 22141R   25185.98923395  .00000324  00000-0  38443-4 0  9993
2 54172  53.2192  36.0636 0001384  88.9491 271.1660 15.08841084148467
Source of the keplerian elements: AFSPC